Record,Date/Time,10,Tamb(K),Rh(%),Pres(mb),Rain,Vint(cm),Lqint(mm), 0.00, 0.10, 0.20, 0.30, 0.40, 0.50, 0.60, 0.70, 0.80, 0.90, 1.00, 1.25, 1.50, 1.75, 2.00, 2.25, 2.50, 2.75, 3.00, 3.25, 3.50, 3.75, 4.00, 4.25, 4.50, 4.75, 5.00, 5.25, 5.50, 5.75, 6.00, 6.25, 6.50, 6.75, 7.00, 7.25, 7.50, 7.75, 8.00, 8.25, 8.50, 8.75, 9.00, 9.25, 9.50, 9.75,10.00
     1,10/08/05 00:01:14,13,290.9, 74.9,1015.5,Y, 2.84, 0.00,11.34,10.31,10.01, 9.83, 9.65, 9.49, 9.22, 8.87, 8.65, 8.41, 8.07, 7.13, 6.31, 5.43, 4.42, 4.22, 3.78, 3.44, 3.47, 3.39, 3.28, 3.24, 3.02, 2.68, 2.36, 2.08, 1.81, 1.51, 1.30, 1.14, 1.00, 0.84, 0.73, 0.63, 0.51, 0.43, 0.35, 0.28, 0.22, 0.16, 0.13, 0.10, 0.08, 0.06, 0.06, 0.05, 0.04
     2,10/08/05 00:02:14,13,291.0, 75.3,1015.1,Y, 2.77, 0.00,11.46,10.04, 9.72, 9.52, 9.31, 9.13, 8.84, 8.47, 8.22, 7.96, 7.62, 6.71, 5.91, 4.99, 4.07, 3.98, 3.61, 3.37, 3.43, 3.41, 3.37, 3.36, 3.19, 2.88, 2.61, 2.32, 2.05, 1.72, 1.50, 1.31, 1.13, 0.96, 0.82, 0.70, 0.57, 0.47, 0.38, 0.30, 0.23, 0.17, 0.13, 0.10, 0.08, 0.06, 0.06, 0.05, 0.04
     3,10/08/05 00:03:14,13,290.9, 74.6,1015.5,Y, 2.84, 0.00,11.30,10.52,10.22,10.06, 9.91, 9.76, 9.50, 9.13, 8.91, 8.68, 8.28, 7.18, 6.36, 5.77, 5.07, 5.16, 4.93, 4.64, 4.63, 4.30, 3.96, 3.66, 3.20, 2.62, 2.09, 1.79, 1.51, 1.24, 1.10, 0.98, 0.82, 0.73, 0.64, 0.57, 0.47, 0.39, 0.34, 0.28, 0.22, 0.16, 0.13, 0.10, 0.08, 0.06, 0.06, 0.05, 0.04
     4,10/08/05 00:04:14,13,291.0, 73.6,1015.8,Y, 2.78, 0.00,11.19,10.05, 9.74, 9.57, 9.39, 9.23, 8.97, 8.62, 8.39, 8.15, 7.80, 6.83, 5.98, 5.12, 4.19, 4.12, 3.78, 3.52, 3.61, 3.56, 3.49, 3.43, 3.19, 2.82, 2.46, 2.16, 1.88, 1.57, 1.37, 1.20, 1.04, 0.89, 0.77, 0.66, 0.54, 0.45, 0.37, 0.30, 0.23, 0.17, 0.13, 0.10, 0.08, 0.06, 0.06, 0.05, 0.04
     5,10/08/05 00:05:14,13,291.0, 71.3,1015.3,Y, 2.61, 0.00,10.86, 8.61, 8.29, 8.08, 7.90, 7.69, 7.41, 7.02, 6.67, 6.45, 6.04, 5.05, 4.31, 3.81, 3.68, 4.87, 5.69, 6.46, 7.09, 7.02, 6.93, 6.14, 5.65, 4.62, 3.83, 3.24, 2.84, 2.33, 2.23, 2.06, 1.57, 1.49, 1.18, 1.06, 0.83, 0.65, 0.55, 0.44, 0.27, 0.19, 0.14, 0.10, 0.08, 0.06, 0.06, 0.05, 0.04
     6,10/08/05 00:06:14,13,290.9, 71.7,1015.5,Y, 2.71, 0.00,10.88, 9.06, 8.74, 8.56, 8.38, 8.19, 7.92, 7.56, 7.24, 7.03, 6.62, 5.62, 4.87, 4.39, 4.12, 5.06, 5.58, 5.99, 6.43, 6.26, 6.07, 5.45, 4.94, 4.02, 3.28, 2.78, 2.40, 1.97, 1.84, 1.69, 1.33, 1.23, 1.01, 0.90, 0.71, 0.57, 0.49, 0.39, 0.26, 0.19, 0.14, 0.10, 0.08, 0.06, 0.06, 0.05, 0.04
     7,10/08/05 00:07:14,13,291.0, 72.7,1015.8,Y, 2.75, 0.00,11.09, 9.47, 9.14, 8.96, 8.80, 8.60, 8.32, 7.90, 7.55, 7.34, 6.88, 5.68, 4.92, 4.70, 4.94, 6.53, 7.82, 8.76, 9.25, 8.53, 7.82, 6.49, 5.53, 4.12, 3.05, 2.51, 2.12, 1.71, 1.65, 1.55, 1.15, 1.13, 0.91, 0.85, 0.68, 0.53, 0.49, 0.41, 0.26, 0.19, 0.13, 0.11, 0.08, 0.06, 0.06, 0.05, 0.04
     8,10/08/05 00:08:14,13,290.9, 74.9,1015.7,Y, 2.68, 0.00,11.34, 9.39, 9.02, 8.81, 8.61, 8.40, 8.11, 7.68, 7.34, 7.12, 6.71, 5.62, 4.74, 4.14, 3.87, 4.58, 5.04, 5.37, 5.84, 5.81, 5.79, 5.31, 4.86, 4.05, 3.34, 2.87, 2.50, 2.07, 1.96, 1.81, 1.40, 1.32, 1.07, 0.97, 0.78, 0.62, 0.53, 0.42, 0.27, 0.19, 0.14, 0.10, 0.08, 0.06, 0.05, 0.05, 0.04
     9,10/08/05 00:09:14,13,290.9, 74.9,1015.4,Y, 2.66, 0.00,11.30, 8.89, 8.53, 8.30, 8.09, 7.86, 7.56, 7.11, 6.72, 6.48, 6.06, 4.99, 4.24, 3.80, 3.92, 5.36, 6.57, 7.67, 8.41, 8.27, 8.09, 7.01, 6.37, 5.07, 4.14, 3.50, 3.07, 2.52, 2.46, 2.31, 1.71, 1.66, 1.30, 1.18, 0.92, 0.71, 0.61, 0.48, 0.29, 0.20, 0.14, 0.11, 0.08, 0.06, 0.05, 0.05, 0.04
    10,10/08/05 00:10:14,13,290.9, 75.9,1015.3,Y, 2.63, 0.00,11.45, 8.69, 8.31, 8.06, 7.82, 7.57, 7.26, 6.83, 6.43, 6.19, 5.81, 4.86, 4.09, 3.56, 3.51, 4.62, 5.49, 6.31, 7.04, 7.18, 7.32, 6.62, 6.23, 5.22, 4.48, 3.85, 3.43, 2.86, 2.78, 2.59, 1.94, 1.86, 1.45, 1.30, 1.02, 0.79, 0.66, 0.51, 0.30, 0.21, 0.14, 0.11, 0.08, 0.06, 0.05, 0.05, 0.04
    11,10/08/05 00:11:14,13,291.0, 77.5,1016.1,Y, 2.66, 0.00,11.78, 9.34, 8.93, 8.67, 8.43, 8.17, 7.83, 7.39, 7.00, 6.76, 6.36, 5.37, 4.55, 4.02, 3.95, 4.85, 5.51, 6.03, 6.50, 6.41, 6.36, 5.72, 5.24, 4.32, 3.60, 3.09, 2.71, 2.24, 2.15, 2.00, 1.51, 1.45, 1.15, 1.05, 0.84, 0.66, 0.56, 0.44, 0.28, 0.19, 0.14, 0.10, 0.08, 0.06, 0.05, 0.05, 0.04
    12,10/08/05 00:12:14,13,290.8, 73.4,1015.2,Y, 2.63, 0.00,11.01, 8.71, 8.38, 8.16, 7.96, 7.75, 7.46, 7.06, 6.71, 6.47, 6.07, 5.10, 4.40, 3.86, 3.70, 4.82, 5.52, 6.20, 6.73, 6.69, 6.61, 5.91, 5.50, 4.54, 3.86, 3.29, 2.91, 2.40, 2.27, 2.08, 1.61, 1.50, 1.19, 1.06, 0.82, 0.65, 0.54, 0.42, 0.27, 0.19, 0.14, 0.10, 0.08, 0.06, 0.06, 0.05, 0.04
    13,10/08/05 00:13:14,13,290.7, 72.3,1015.9,Y, 2.72, 0.00,10.84, 9.30, 8.98, 8.81, 8.66, 8.48, 8.22, 7.80, 7.48, 7.25, 6.81, 5.58, 4.75, 4.25, 4.13, 5.27, 6.11, 6.77, 7.39, 7.22, 6.95, 6.09, 5.42, 4.29, 3.38, 2.85, 2.45, 2.00, 1.91, 1.78, 1.36, 1.29, 1.05, 0.96, 0.75, 0.60, 0.53, 0.42, 0.28, 0.19, 0.14, 0.11, 0.08, 0.06, 0.06, 0.05, 0.04
    14,10/08/05 00:14:14,13,291.0, 70.2,1015.7,Y, 2.66, 0.00,10.70, 8.56, 8.24, 8.05, 7.88, 7.67, 7.40, 6.99, 6.61, 6.41, 5.96, 4.83, 4.10, 3.83, 4.12, 6.11, 7.94, 9.62,10.64,10.23, 9.75, 8.07, 7.12, 5.38, 4.11, 3.39, 2.92, 2.36, 2.33, 2.22, 1.60, 1.60, 1.24, 1.15, 0.89, 0.68, 0.62, 0.50, 0.29, 0.21, 0.14, 0.11, 0.08, 0.06, 0.06, 0.05, 0.04
    15,10/08/05 00:15:14,13,290.9, 68.8,1015.4,Y, 2.64, 0.00,10.42, 8.18, 7.87, 7.69, 7.53, 7.34, 7.07, 6.64, 6.26, 6.05, 5.59, 4.41, 3.69, 3.36, 3.68, 5.95, 8.21,10.51,11.98,11.83,11.48, 9.46, 8.48, 6.41, 4.98, 4.13, 3.60, 2.92, 2.93, 2.82, 1.99, 2.01, 1.52, 1.41, 1.07, 0.80, 0.73, 0.58, 0.32, 0.22, 0.15, 0.12, 0.08, 0.06, 0.06, 0.05, 0.04
    16,10/08/05 00:16:14,13,291.1, 67.9,1015.9,Y, 2.72, 0.00,10.42, 9.44, 9.16, 9.04, 8.93, 8.79, 8.55, 8.17, 7.89, 7.68, 7.21, 5.90, 5.06, 4.65, 4.47, 5.65, 6.43, 7.00, 7.51, 7.09, 6.59, 5.65, 4.87, 3.74, 2.81, 2.34, 1.97, 1.59, 1.49, 1.39, 1.07, 1.02, 0.84, 0.77, 0.61, 0.49, 0.45, 0.37, 0.25, 0.18, 0.13, 0.11, 0.08, 0.06, 0.06, 0.05, 0.04
    17,10/08/05 00:17:14,13,291.1, 68.6,1015.7,Y, 2.57, 0.00,10.45, 8.00, 7.69, 7.50, 7.31, 7.12, 6.86, 6.50, 6.16, 5.92, 5.54, 4.63, 3.96, 3.31, 3.03, 4.17, 4.87, 5.68, 6.43, 6.69, 6.88, 6.30, 6.13, 5.27, 4.73, 4.08, 3.68, 3.06, 2.87, 2.62, 2.06, 1.87, 1.46, 1.26, 0.95, 0.74, 0.60, 0.46, 0.28, 0.20, 0.14, 0.10, 0.08, 0.06, 0.06, 0.05, 0.04
    18,10/08/05 00:18:14,13,290.9, 69.3,1015.9,Y, 2.65, 0.00,10.50, 9.05, 8.75, 8.60, 8.44, 8.28, 8.04, 7.71, 7.45, 7.21, 6.83, 5.87, 5.11, 4.35, 3.66, 4.12, 4.12, 4.18, 4.46, 4.45, 4.42, 4.19, 3.95, 3.41, 2.96, 2.56, 2.24, 1.85, 1.65, 1.47, 1.23, 1.07, 0.90, 0.78, 0.60, 0.49, 0.41, 0.32, 0.23, 0.17, 0.13, 0.10, 0.08, 0.06, 0.06, 0.05, 0.04
    19,10/08/05 00:19:14,13,291.1, 72.2,1016.2,Y, 2.69, 0.00,11.05, 8.89, 8.55, 8.35, 8.16, 7.95, 7.66, 7.26, 6.91, 6.68, 6.27, 5.24, 4.49, 4.03, 3.99, 5.25, 6.17, 6.98, 7.59, 7.42, 7.22, 6.33, 5.75, 4.62, 3.75, 3.17, 2.77, 2.27, 2.16, 2.01, 1.53, 1.45, 1.16, 1.04, 0.82, 0.64, 0.56, 0.44, 0.28, 0.20, 0.14, 0.11, 0.08, 0.06, 0.06, 0.05, 0.04
    20,10/08/05 00:20:14,13,291.0, 71.6,1016.0,Y, 2.76, 0.00,10.92, 9.53, 9.21, 9.05, 8.89, 8.73, 8.47, 8.10, 7.82, 7.60, 7.20, 6.11, 5.23, 4.58, 4.05, 4.56, 4.75, 4.85, 5.20, 5.15, 5.06, 4.71, 4.31, 3.63, 2.99, 2.58, 2.23, 1.85, 1.69, 1.54, 1.25, 1.12, 0.94, 0.84, 0.67, 0.54, 0.47, 0.37, 0.26, 0.18, 0.14, 0.11, 0.08, 0.06, 0.06, 0.05, 0.04
    21,10/08/05 00:21:14,13,291.0, 73.8,1015.8,Y, 2.74, 0.00,11.22, 9.50, 9.16, 8.97, 8.79, 8.60, 8.32, 7.90, 7.58, 7.34, 6.94, 5.84, 5.01, 4.38, 4.04, 4.74, 5.11, 5.38, 5.77, 5.70, 5.58, 5.12, 4.68, 3.91, 3.26, 2.81, 2.44, 2.02, 1.88, 1.72, 1.36, 1.25, 1.03, 0.92, 0.73, 0.58, 0.50, 0.40, 0.27, 0.19, 0.14, 0.11, 0.08, 0.06, 0.06, 0.05, 0.04
    22,10/08/05 00:22:14,13,290.9, 74.2,1015.9,Y, 2.68, 0.00,11.21, 8.76, 8.40, 8.18, 7.98, 7.75, 7.46, 7.02, 6.64, 6.40, 5.99, 4.94, 4.17, 3.66, 3.66, 4.94, 5.99, 6.98, 7.78, 7.85, 7.86, 6.97, 6.47, 5.30, 4.43, 3.79, 3.35, 2.77, 2.69, 2.52, 1.89, 1.81, 1.41, 1.27, 0.99, 0.77, 0.65, 0.51, 0.31, 0.21, 0.15, 0.11, 0.08, 0.06, 0.06, 0.05, 0.04
    23,10/08/05 00:23:14,13,291.0, 73.9,1015.9,Y, 2.74, 0.00,11.27, 9.50, 9.15, 8.96, 8.78, 8.58, 8.30, 7.88, 7.55, 7.32, 6.92, 5.81, 4.95, 4.35, 4.05, 4.77, 5.20, 5.50, 5.92, 5.85, 5.75, 5.25, 4.79, 3.97, 3.27, 2.81, 2.44, 2.02, 1.89, 1.74, 1.37, 1.27, 1.04, 0.93, 0.75, 0.59, 0.51, 0.41, 0.27, 0.19, 0.14, 0.11, 0.08, 0.06, 0.06, 0.05, 0.04
    24,10/08/05 00:24:15,13,291.0, 73.1,1015.9,Y, 2.76, 0.00,11.14, 9.74, 9.41, 9.24, 9.07, 8.90, 8.63, 8.24, 7.95, 7.72, 7.32, 6.21, 5.33, 4.68, 4.17, 4.63, 4.77, 4.83, 5.12, 5.02, 4.90, 4.55, 4.14, 3.47, 2.86, 2.47, 2.14, 1.76, 1.61, 1.47, 1.19, 1.08, 0.90, 0.80, 0.65, 0.52, 0.45, 0.36, 0.26, 0.18, 0.13, 0.10, 0.08, 0.06, 0.06, 0.05, 0.04
    25,10/08/05 00:25:14,13,290.9, 73.9,1015.9,Y, 2.76, 0.00,11.18, 9.38, 9.06, 8.86, 8.66, 8.47, 8.19, 7.82, 7.53, 7.29, 6.93, 6.02, 5.27, 4.59, 4.03, 4.51, 4.57, 4.62, 4.86, 4.83, 4.77, 4.51, 4.23, 3.64, 3.17, 2.75, 2.42, 2.01, 1.82, 1.63, 1.35, 1.18, 0.99, 0.86, 0.68, 0.55, 0.45, 0.36, 0.25, 0.18, 0.14, 0.10, 0.08, 0.06, 0.06, 0.05, 0.04
    26,10/08/05 00:26:14,13,290.8, 74.8,1016.1,Y, 2.85, 0.00,11.26,10.61,10.31,10.16,10.01, 9.88, 9.62, 9.25, 9.05, 8.81, 8.44, 7.32, 6.44, 5.66, 4.75, 4.62, 4.26, 3.92, 3.94, 3.76, 3.55, 3.40, 3.04, 2.58, 2.14, 1.86, 1.59, 1.32, 1.15, 1.01, 0.87, 0.76, 0.66, 0.58, 0.48, 0.40, 0.34, 0.28, 0.22, 0.16, 0.13, 0.10, 0.08, 0.06, 0.06, 0.05, 0.04
    27,10/08/05 00:27:14,13,290.8, 74.7,1015.9,Y, 2.83, 0.01,11.26,10.34,10.04, 9.87, 9.68, 9.52, 9.25, 8.95, 8.75, 8.50, 8.18, 7.36, 6.62, 5.82, 4.71, 4.41, 3.83, 3.42, 3.35, 3.19, 3.02, 2.96, 2.73, 2.38, 2.07, 1.81, 1.56, 1.30, 1.10, 0.95, 0.85, 0.70, 0.62, 0.54, 0.44, 0.37, 0.30, 0.25, 0.20, 0.15, 0.12, 0.10, 0.08, 0.06, 0.06, 0.05, 0.04
    28,10/08/05 00:28:15,13,291.0, 75.9,1015.9,Y, 2.89, 0.05,11.54,10.91,10.61,10.45,10.25,10.11, 9.83, 9.49, 9.31, 9.06, 8.75, 7.82, 6.96, 5.92, 4.64, 4.07, 3.41, 2.96, 2.90, 2.80, 2.68, 2.71, 2.53, 2.28, 2.05, 1.83, 1.60, 1.34, 1.12, 0.96, 0.87, 0.71, 0.63, 0.54, 0.44, 0.38, 0.30, 0.25, 0.21, 0.15, 0.13, 0.10, 0.08, 0.07, 0.06, 0.05, 0.04
    29,10/08/05 00:29:14,13,290.9, 76.7,1016.0,Y, 2.92, 0.00,11.58,10.65,10.34,10.17, 9.98, 9.82, 9.54, 9.18, 8.97, 8.73, 8.39, 7.42, 6.60, 5.77, 4.79, 4.53, 4.07, 3.68, 3.66, 3.54, 3.36, 3.29, 3.02, 2.64, 2.28, 2.00, 1.74, 1.45, 1.25, 1.10, 0.96, 0.81, 0.71, 0.61, 0.51, 0.42, 0.35, 0.28, 0.23, 0.16, 0.13, 0.10, 0.09, 0.07, 0.06, 0.05, 0.04
    30,10/08/05 00:30:14,13,290.9, 77.1,1015.7,Y, 2.74, 0.00,11.62, 9.67, 9.30, 9.08, 8.84, 8.63, 8.33, 7.91, 7.59, 7.33, 6.98, 6.01, 5.15, 4.28, 3.65, 3.86, 3.81, 3.79, 4.05, 4.19, 4.31, 4.25, 4.10, 3.70, 3.37, 3.00, 2.68, 2.26, 2.05, 1.84, 1.52, 1.34, 1.11, 0.96, 0.76, 0.62, 0.50, 0.38, 0.27, 0.19, 0.14, 0.10, 0.08, 0.06, 0.06, 0.05, 0.04
    31,10/08/05 00:31:14,13,290.9, 76.5,1015.8,Y, 2.90, 0.00,11.60,10.50,10.18,10.00, 9.83, 9.64, 9.36, 8.98, 8.72, 8.49, 8.08, 7.01, 6.24, 5.81, 5.41, 5.78, 5.82, 5.66, 5.63, 5.18, 4.69, 4.21, 3.64, 2.90, 2.27, 1.93, 1.64, 1.34, 1.20, 1.09, 0.89, 0.81, 0.69, 0.62, 0.52, 0.42, 0.37, 0.31, 0.23, 0.17, 0.13, 0.10, 0.08, 0.06, 0.06, 0.05, 0.04
    32,10/08/05 00:32:14,13,290.9, 76.1,1015.8,Y, 2.73, 0.05,11.50, 9.91, 9.55, 9.32, 9.07, 8.88, 8.58, 8.24, 8.00, 7.74, 7.48, 6.73, 5.83, 4.65, 3.44, 3.05, 2.55, 2.25, 2.34, 2.46, 2.61, 2.81, 2.85, 2.80, 2.79, 2.55, 2.31, 1.98, 1.68, 1.44, 1.30, 1.04, 0.91, 0.75, 0.60, 0.50, 0.38, 0.29, 0.23, 0.17, 0.13, 0.10, 0.08, 0.06, 0.06, 0.05, 0.04
    33,10/08/05 00:33:14,13,291.0, 77.3,1015.5,Y, 2.87, 0.00,11.74,10.48,10.16, 9.96, 9.76, 9.57, 9.28, 8.88, 8.62, 8.37, 8.00, 6.98, 6.16, 5.41, 4.70, 4.72, 4.48, 4.24, 4.27, 4.11, 3.91, 3.73, 3.40, 2.92, 2.49, 2.18, 1.90, 1.58, 1.40, 1.24, 1.05, 0.91, 0.78, 0.68, 0.56, 0.46, 0.39, 0.31, 0.24, 0.17, 0.13, 0.10, 0.08, 0.06, 0.06, 0.05, 0.04
    34,10/08/05 00:34:14,13,290.8, 76.9,1016.2,Y, 2.85, 0.00,11.59,10.16, 9.83, 9.63, 9.42, 9.23, 8.94, 8.57, 8.31, 8.05, 7.68, 6.77, 6.08, 5.46, 4.85, 5.10, 4.94, 4.77, 4.75, 4.50, 4.21, 3.92, 3.56, 2.99, 2.53, 2.18, 1.89, 1.56, 1.38, 1.23, 1.03, 0.90, 0.77, 0.67, 0.55, 0.45, 0.37, 0.30, 0.23, 0.17, 0.13, 0.10, 0.08, 0.06, 0.06, 0.05, 0.04
    35,10/08/05 00:35:14,13,290.9, 76.7,1016.0,Y, 2.87, 0.00,11.61,10.76,10.43,10.26,10.08, 9.92, 9.64, 9.26, 9.04, 8.81, 8.44, 7.37, 6.47, 5.72, 4.86, 4.66, 4.30, 3.93, 3.93, 3.75, 3.54, 3.39, 3.05, 2.60, 2.15, 1.88, 1.61, 1.34, 1.17, 1.04, 0.89, 0.77, 0.68, 0.60, 0.50, 0.41, 0.35, 0.29, 0.23, 0.16, 0.13, 0.10, 0.08, 0.06, 0.06, 0.05, 0.04
    36,10/08/05 00:36:14,13,291.0, 77.8,1016.0,Y, 2.82, 0.00,11.82,10.19, 9.83, 9.61, 9.38, 9.18, 8.87, 8.45, 8.16, 7.90, 7.55, 6.57, 5.71, 4.84, 4.10, 4.13, 3.93, 3.76, 3.89, 3.91, 3.89, 3.83, 3.62, 3.25, 2.92, 2.60, 2.30, 1.94, 1.73, 1.53, 1.29, 1.12, 0.94, 0.81, 0.66, 0.54, 0.44, 0.34, 0.25, 0.18, 0.14, 0.10, 0.08, 0.06, 0.06, 0.05, 0.04
    37,10/08/05 00:37:14,13,290.8, 78.7,1016.1,Y, 2.85, 0.00,11.85,10.18, 9.82, 9.60, 9.38, 9.16, 8.85, 8.43, 8.12, 7.88, 7.49, 6.50, 5.75, 5.21, 4.89, 5.38, 5.54, 5.55, 5.62, 5.33, 4.99, 4.54, 4.06, 3.34, 2.74, 2.36, 2.04, 1.68, 1.54, 1.39, 1.12, 1.02, 0.85, 0.76, 0.62, 0.50, 0.43, 0.34, 0.25, 0.18, 0.13, 0.10, 0.08, 0.06, 0.06, 0.05, 0.04
    38,10/08/05 00:38:14,13,290.9, 77.3,1015.8,Y, 2.76, 0.00,11.71, 9.79, 9.41, 9.19, 8.95, 8.73, 8.43, 8.02, 7.70, 7.46, 7.11, 6.15, 5.26, 4.48, 3.87, 4.06, 4.02, 3.96, 4.21, 4.28, 4.36, 4.25, 4.03, 3.59, 3.18, 2.80, 2.48, 2.09, 1.90, 1.71, 1.41, 1.25, 1.04, 0.91, 0.74, 0.60, 0.49, 0.38, 0.27, 0.19, 0.14, 0.10, 0.08, 0.06, 0.06, 0.05, 0.04
    39,10/08/05 00:39:14,13,291.0, 78.4,1015.9,Y, 2.69, 0.00,11.87, 9.04, 8.64, 8.37, 8.09, 7.83, 7.50, 7.07, 6.68, 6.42, 6.08, 5.24, 4.45, 3.68, 3.28, 3.79, 4.02, 4.29, 4.73, 5.03, 5.35, 5.24, 5.20, 4.76, 4.50, 4.02, 3.67, 3.12, 2.91, 2.64, 2.12, 1.89, 1.51, 1.29, 1.02, 0.80, 0.63, 0.47, 0.30, 0.21, 0.15, 0.10, 0.08, 0.06, 0.06, 0.05, 0.04
    40,10/08/05 00:40:14,13,290.9, 76.9,1016.0,Y, 2.76, 0.00,11.64, 9.20, 8.84, 8.59, 8.35, 8.11, 7.79, 7.38, 7.02, 6.77, 6.39, 5.51, 4.82, 4.33, 4.23, 5.23, 5.84, 6.35, 6.72, 6.59, 6.41, 5.77, 5.33, 4.41, 3.74, 3.21, 2.83, 2.34, 2.20, 2.02, 1.57, 1.45, 1.17, 1.03, 0.82, 0.65, 0.54, 0.43, 0.27, 0.20, 0.14, 0.11, 0.08, 0.06, 0.06, 0.05, 0.04
    41,10/08/05 00:41:15,13,290.9, 76.5,1015.8,Y, 2.77, 0.00,11.59, 9.37, 8.99, 8.76, 8.53, 8.30, 8.00, 7.60, 7.27, 7.04, 6.68, 5.78, 4.94, 4.23, 3.74, 4.16, 4.30, 4.40, 4.76, 4.91, 5.05, 4.89, 4.68, 4.15, 3.69, 3.25, 2.90, 2.44, 2.25, 2.04, 1.65, 1.48, 1.22, 1.06, 0.85, 0.68, 0.56, 0.43, 0.29, 0.20, 0.14, 0.11, 0.08, 0.06, 0.06, 0.05, 0.04
    42,10/08/05 00:42:14,13,291.0, 77.6,1016.2,Y, 2.88, 0.00,11.82,10.03, 9.67, 9.45, 9.24, 9.01, 8.69, 8.28, 7.94, 7.71, 7.29, 6.27, 5.55, 5.22, 5.26, 6.25, 6.88, 7.24, 7.36, 6.82, 6.25, 5.41, 4.73, 3.69, 2.89, 2.44, 2.09, 1.71, 1.59, 1.46, 1.14, 1.07, 0.88, 0.80, 0.65, 0.52, 0.46, 0.37, 0.25, 0.18, 0.14, 0.11, 0.08, 0.06, 0.06, 0.05, 0.04
    43,10/08/05 00:43:14,13,290.9, 79.7,1016.0,Y, 2.85, 0.00,12.06,10.10, 9.69, 9.45, 9.22, 8.97, 8.63, 8.16, 7.79, 7.56, 7.14, 6.05, 5.24, 4.82, 4.89, 5.82, 6.55, 6.99, 7.28, 6.91, 6.52, 5.72, 5.06, 4.01, 3.18, 2.71, 2.35, 1.93, 1.84, 1.70, 1.30, 1.24, 1.01, 0.92, 0.75, 0.59, 0.52, 0.42, 0.27, 0.19, 0.14, 0.11, 0.08, 0.06, 0.06, 0.05, 0.04
    44,10/08/05 00:44:15,13,290.8, 78.4,1015.9,Y, 2.85, 0.00,11.81, 9.94, 9.58, 9.35, 9.12, 8.89, 8.58, 8.16, 7.84, 7.59, 7.20, 6.23, 5.48, 4.95, 4.69, 5.30, 5.58, 5.72, 5.89, 5.67, 5.39, 4.91, 4.45, 3.68, 3.06, 2.63, 2.30, 1.90, 1.75, 1.59, 1.27, 1.16, 0.96, 0.85, 0.69, 0.55, 0.47, 0.38, 0.26, 0.19, 0.14, 0.11, 0.08, 0.06, 0.06, 0.05, 0.04
    45,10/08/05 00:45:14,13,290.8, 79.2,1015.9,Y, 2.78, 0.00,11.92, 9.66, 9.27, 9.02, 8.75, 8.51, 8.18, 7.77, 7.44, 7.18, 6.85, 6.01, 5.22, 4.39, 3.78, 3.98, 3.91, 3.86, 4.08, 4.22, 4.34, 4.30, 4.18, 3.82, 3.55, 3.17, 2.85, 2.42, 2.19, 1.95, 1.62, 1.41, 1.17, 0.99, 0.80, 0.64, 0.51, 0.39, 0.27, 0.19, 0.14, 0.10, 0.08, 0.06, 0.06, 0.05, 0.04
    46,10/08/05 00:46:14,13,290.8, 78.5,1015.8,Y, 2.86, 0.00,11.83,10.05, 9.67, 9.45, 9.23, 9.01, 8.70, 8.25, 7.92, 7.69, 7.30, 6.20, 5.29, 4.66, 4.34, 4.80, 5.09, 5.21, 5.55, 5.52, 5.45, 5.08, 4.65, 3.92, 3.27, 2.85, 2.49, 2.08, 1.94, 1.78, 1.41, 1.30, 1.07, 0.96, 0.78, 0.62, 0.54, 0.42, 0.29, 0.20, 0.14, 0.11, 0.08, 0.06, 0.06, 0.05, 0.04
    47,10/08/05 00:47:14,13,290.8, 79.0,1016.0,Y, 2.81, 0.00,11.90, 9.61, 9.22, 8.97, 8.73, 8.48, 8.15, 7.71, 7.34, 7.10, 6.72, 5.75, 4.97, 4.40, 4.22, 4.96, 5.43, 5.77, 6.14, 6.10, 6.01, 5.52, 5.12, 4.30, 3.67, 3.19, 2.82, 2.35, 2.21, 2.02, 1.59, 1.46, 1.18, 1.05, 0.84, 0.67, 0.56, 0.44, 0.29, 0.20, 0.14, 0.11, 0.08, 0.06, 0.06, 0.05, 0.04
    48,10/08/05 00:48:14,13,290.9, 78.5,1016.0,Y, 2.82, 0.00,11.83,10.11, 9.73, 9.51, 9.27, 9.06, 8.75, 8.34, 8.04, 7.80, 7.46, 6.48, 5.56, 4.69, 3.96, 3.96, 3.79, 3.62, 3.82, 3.92, 3.99, 3.98, 3.79, 3.43, 3.07, 2.74, 2.43, 2.05, 1.85, 1.65, 1.38, 1.21, 1.02, 0.88, 0.72, 0.59, 0.48, 0.37, 0.27, 0.19, 0.14, 0.10, 0.08, 0.06, 0.06, 0.05, 0.04
    49,10/08/05 00:49:14,13,290.9, 77.8,1016.0,Y, 2.87, 0.00,11.77,10.39,10.03, 9.83, 9.63, 9.43, 9.13, 8.73, 8.44, 8.22, 7.84, 6.80, 5.92, 5.28, 4.73, 4.90, 4.86, 4.69, 4.80, 4.63, 4.43, 4.16, 3.75, 3.16, 2.61, 2.26, 1.96, 1.62, 1.47, 1.32, 1.09, 0.98, 0.83, 0.74, 0.61, 0.50, 0.43, 0.34, 0.25, 0.18, 0.14, 0.10, 0.08, 0.06, 0.06, 0.05, 0.04
    50,10/08/05 00:50:14,13,290.9, 78.5,1016.1,Y, 2.87, 0.00,11.85,10.14, 9.79, 9.57, 9.33, 9.12, 8.81, 8.42, 8.12, 7.87, 7.51, 6.61, 5.85, 5.16, 4.58, 4.79, 4.69, 4.56, 4.63, 4.51, 4.34, 4.12, 3.80, 3.28, 2.84, 2.48, 2.18, 1.82, 1.63, 1.45, 1.21, 1.06, 0.89, 0.77, 0.63, 0.52, 0.43, 0.34, 0.25, 0.18, 0.14, 0.10, 0.08, 0.07, 0.06, 0.05, 0.04
    51,10/08/05 00:51:14,13,290.9, 78.7,1015.9,Y, 2.88, 0.00,11.87,10.34, 9.98, 9.77, 9.55, 9.35, 9.05, 8.60, 8.29, 8.04, 7.65, 6.55, 5.69, 4.93, 4.43, 4.68, 4.72, 4.68, 4.86, 4.81, 4.68, 4.44, 4.09, 3.51, 3.01, 2.65, 2.33, 1.95, 1.77, 1.59, 1.31, 1.17, 0.97, 0.86, 0.69, 0.56, 0.47, 0.37, 0.27, 0.19, 0.14, 0.11, 0.08, 0.07, 0.06, 0.05, 0.04
    52,10/08/05 00:52:14,13,290.9, 79.0,1015.7,Y, 2.94, 0.00,11.93,11.06,10.73,10.55,10.36,10.18, 9.89, 9.48, 9.24, 9.00, 8.60, 7.50, 6.72, 6.22, 5.72, 5.80, 5.62, 5.28, 5.13, 4.65, 4.15, 3.75, 3.22, 2.58, 2.03, 1.74, 1.47, 1.20, 1.07, 0.96, 0.80, 0.71, 0.62, 0.56, 0.47, 0.39, 0.34, 0.28, 0.22, 0.16, 0.13, 0.10, 0.08, 0.06, 0.06, 0.05, 0.04
    53,10/08/05 00:53:14,13,290.8, 79.2,1016.1,Y, 2.87, 0.00,11.87, 9.75, 9.38, 9.14, 8.87, 8.64, 8.33, 7.94, 7.63, 7.37, 7.06, 6.25, 5.49, 4.65, 3.96, 4.10, 3.95, 3.84, 4.03, 4.16, 4.25, 4.25, 4.15, 3.81, 3.56, 3.19, 2.88, 2.44, 2.18, 1.94, 1.64, 1.40, 1.17, 0.98, 0.79, 0.64, 0.51, 0.39, 0.28, 0.20, 0.15, 0.11, 0.09, 0.07, 0.06, 0.05, 0.04
    54,10/08/05 00:54:14,13,290.8, 79.0,1015.8,Y, 2.81, 0.00,11.85, 9.71, 9.33, 9.09, 8.83, 8.60, 8.29, 7.86, 7.54, 7.27, 6.94, 6.04, 5.24, 4.35, 3.70, 3.89, 3.82, 3.78, 4.03, 4.22, 4.36, 4.36, 4.28, 3.94, 3.71, 3.34, 3.02, 2.57, 2.32, 2.06, 1.73, 1.49, 1.23, 1.04, 0.83, 0.67, 0.53, 0.40, 0.28, 0.20, 0.15, 0.11, 0.08, 0.07, 0.06, 0.05, 0.04
    55,10/08/05 00:55:14,13,290.7, 78.1,1016.2,Y, 2.87, 0.00,11.68,10.13, 9.79, 9.59, 9.37, 9.18, 8.88, 8.46, 8.17, 7.92, 7.55, 6.54, 5.75, 5.06, 4.54, 4.86, 4.87, 4.81, 4.94, 4.83, 4.64, 4.36, 4.00, 3.40, 2.91, 2.53, 2.22, 1.84, 1.66, 1.49, 1.23, 1.09, 0.92, 0.80, 0.65, 0.53, 0.44, 0.35, 0.26, 0.18, 0.14, 0.11, 0.08, 0.06, 0.06, 0.05, 0.04
    56,10/08/05 00:56:14,13,290.8, 78.6,1016.0,Y, 2.85, 0.00,11.83, 9.88, 9.49, 9.26, 9.05, 8.80, 8.48, 8.02, 7.65, 7.43, 7.00, 5.88, 5.06, 4.73, 4.93, 6.13, 7.14, 7.82, 8.24, 7.80, 7.34, 6.32, 5.53, 4.28, 3.30, 2.79, 2.40, 1.96, 1.89, 1.77, 1.32, 1.29, 1.04, 0.96, 0.78, 0.61, 0.55, 0.44, 0.28, 0.20, 0.14, 0.11, 0.08, 0.06, 0.06, 0.05, 0.04
    57,10/08/05 00:57:14,13,290.9, 78.3,1016.4,Y, 2.84, 0.00,11.82,10.31, 9.93, 9.72, 9.50, 9.30, 8.99, 8.58, 8.29, 8.06, 7.70, 6.68, 5.72, 4.89, 4.16, 4.14, 3.98, 3.78, 3.96, 3.99, 4.00, 3.93, 3.68, 3.27, 2.85, 2.52, 2.22, 1.87, 1.68, 1.50, 1.25, 1.10, 0.94, 0.82, 0.67, 0.55, 0.46, 0.36, 0.26, 0.18, 0.14, 0.10, 0.08, 0.06, 0.06, 0.05, 0.04
    58,10/08/05 00:58:14,13,290.9, 79.8,1016.5,Y, 2.88, 0.00,12.05, 9.52, 9.10, 8.83, 8.59, 8.30, 7.94, 7.42, 6.95, 6.73, 6.23, 5.06, 4.36, 4.41, 5.74, 8.91,12.47,15.49,16.37,14.91,13.44,10.39, 8.71, 5.97, 4.19, 3.39, 2.88, 2.30, 2.37, 2.31, 1.55, 1.66, 1.26, 1.21, 0.98, 0.72, 0.68, 0.56, 0.31, 0.22, 0.15, 0.12, 0.08, 0.06, 0.06, 0.05, 0.04
    59,10/08/05 00:59:14,13,290.8, 77.4,1016.2,Y, 2.81, 0.00,11.68, 8.49, 8.10, 7.83, 7.59, 7.29, 6.93, 6.45, 5.95, 5.72, 5.24, 4.21, 3.68, 3.86, 5.59,10.32,15.78,20.93,22.21,20.37,18.38,13.82,11.71, 7.79, 5.49, 4.36, 3.73, 2.95, 3.13, 3.10, 1.99, 2.19, 1.58, 1.51, 1.18, 0.84, 0.79, 0.65, 0.32, 0.23, 0.15, 0.13, 0.08, 0.06, 0.06, 0.06, 0.04
    60,10/08/05 01:00:14,13,290.9, 74.4,1016.0,Y, 2.76, 0.00,11.24, 9.10, 8.77, 8.55, 8.35, 8.13, 7.84, 7.44, 7.09, 6.86, 6.45, 5.47, 4.78, 4.38, 4.39, 5.68, 6.57, 7.30, 7.77, 7.49, 7.14, 6.23, 5.61, 4.47, 3.62, 3.05, 2.65, 2.17, 2.06, 1.90, 1.46, 1.38, 1.11, 0.99, 0.79, 0.62, 0.53, 0.43, 0.27, 0.19, 0.14, 0.11, 0.08, 0.06, 0.06, 0.05, 0.04
    61,10/08/05 01:01:14,13,290.8, 73.3,1016.3,Y, 2.72, 0.00,11.02, 8.89, 8.53, 8.34, 8.16, 7.95, 7.67, 7.22, 6.85, 6.63, 6.19, 5.04, 4.24, 3.83, 3.98, 5.57, 6.99, 8.26, 9.20, 9.08, 8.86, 7.60, 6.84, 5.35, 4.23, 3.56, 3.10, 2.53, 2.48, 2.36, 1.73, 1.70, 1.33, 1.22, 0.95, 0.73, 0.65, 0.52, 0.31, 0.21, 0.15, 0.11, 0.08, 0.06, 0.06, 0.05, 0.04
    62,10/08/05 01:02:14,13,290.9, 72.4,1015.9,Y, 2.75, 0.00,10.93, 8.55, 8.22, 8.02, 7.83, 7.62, 7.34, 6.92, 6.54, 6.33, 5.90, 4.86, 4.15, 3.77, 3.95, 5.70, 7.23, 8.69, 9.66, 9.60, 9.38, 8.04, 7.34, 5.78, 4.67, 3.93, 3.45, 2.83, 2.77, 2.62, 1.94, 1.87, 1.46, 1.31, 1.02, 0.78, 0.68, 0.54, 0.32, 0.22, 0.15, 0.12, 0.08, 0.06, 0.06, 0.05, 0.04
    63,10/08/05 01:03:14,13,290.9, 74.2,1016.0,Y, 2.72, 0.00,11.23, 8.54, 8.18, 7.95, 7.74, 7.50, 7.19, 6.74, 6.33, 6.10, 5.66, 4.62, 3.95, 3.68, 4.18, 6.43, 8.62,10.76,11.86,11.51,11.04, 9.13, 8.20, 6.23, 4.91, 4.10, 3.58, 2.92, 2.92, 2.79, 1.99, 1.99, 1.51, 1.39, 1.08, 0.81, 0.71, 0.57, 0.32, 0.22, 0.15, 0.12, 0.08, 0.06, 0.06, 0.05, 0.04
    64,10/08/05 01:04:14,13,291.0, 75.4,1016.6,Y, 2.72, 0.00,11.46, 8.70, 8.32, 8.08, 7.86, 7.60, 7.29, 6.83, 6.41, 6.17, 5.75, 4.73, 4.00, 3.59, 3.86, 5.57, 7.16, 8.70, 9.68, 9.65, 9.52, 8.18, 7.54, 6.01, 4.95, 4.21, 3.73, 3.07, 3.04, 2.88, 2.10, 2.05, 1.57, 1.42, 1.11, 0.84, 0.72, 0.56, 0.32, 0.22, 0.15, 0.11, 0.08, 0.06, 0.06, 0.05, 0.04
    65,10/08/05 01:05:14,13,290.9, 73.5,1016.2,Y, 2.66, 0.00,11.07, 8.84, 8.48, 8.27, 8.07, 7.86, 7.59, 7.18, 6.83, 6.61, 6.22, 5.21, 4.35, 3.69, 3.36, 4.15, 4.65, 5.10, 5.74, 5.96, 6.17, 5.76, 5.48, 4.71, 4.06, 3.52, 3.13, 2.61, 2.47, 2.29, 1.78, 1.65, 1.33, 1.18, 0.92, 0.73, 0.61, 0.47, 0.30, 0.21, 0.14, 0.11, 0.08, 0.06, 0.06, 0.05, 0.04
    66,10/08/05 01:06:14,13,290.9, 73.1,1016.6,Y, 2.71, 0.00,11.06, 8.31, 7.95, 7.72, 7.52, 7.27, 6.97, 6.55, 6.13, 5.92, 5.48, 4.47, 3.80, 3.59, 4.15, 6.61, 9.12,11.56,12.86,12.47,11.98, 9.80, 8.77, 6.57, 5.08, 4.20, 3.66, 2.97, 3.00, 2.90, 2.02, 2.06, 1.56, 1.44, 1.12, 0.83, 0.74, 0.59, 0.32, 0.22, 0.15, 0.12, 0.08, 0.06, 0.06, 0.05, 0.04
    67,10/08/05 01:07:14,13,290.9, 72.9,1016.7,Y, 2.72, 0.00,10.99, 8.86, 8.51, 8.32, 8.14, 7.93, 7.66, 7.23, 6.87, 6.65, 6.23, 5.14, 4.34, 3.82, 3.77, 5.03, 6.04, 6.95, 7.75, 7.79, 7.73, 6.85, 6.30, 5.12, 4.20, 3.58, 3.14, 2.59, 2.49, 2.33, 1.77, 1.68, 1.33, 1.20, 0.93, 0.72, 0.63, 0.49, 0.30, 0.21, 0.15, 0.11, 0.08, 0.06, 0.06, 0.05, 0.04
    68,10/08/05 01:08:14,13,290.8, 71.5,1016.6,Y, 2.69, 0.00,10.77, 7.90, 7.56, 7.34, 7.15, 6.92, 6.63, 6.20, 5.79, 5.57, 5.14, 4.14, 3.51, 3.20, 3.65, 6.13, 8.67,11.40,12.96,12.94,12.69,10.51, 9.69, 7.45, 6.04, 5.05, 4.48, 3.66, 3.69, 3.55, 2.51, 2.51, 1.87, 1.69, 1.27, 0.94, 0.82, 0.64, 0.34, 0.24, 0.16, 0.12, 0.08, 0.06, 0.06, 0.05, 0.04